Location: Kunchanapalle
(16.4623°N, 80.6176°E)
Time: 18:07:50
(UTC+00:00)

Cosmos 2297 - Pass Details

Date: 13 August 2020
Orbit: 837 x 858 km, 71.0° (Epoch: 18 September)

Event Time Altitude Azimuth Distance (km) Brightness Sun altitude
Rises 23:44:59 0° 193° (SSW) 3,413 6.6 -9.2°
Reaches altitude 10° 23:47:25 10° 191° (S) 2,480 5.9 -8.6°
Maximum altitude 23:53:07 78° 106° (ESE) 877 4.0 -7.3°
Drops below altitude 10° 23:58:50 10° 20° (NNE) 2,485 6.7 -6.0°
Sets 00:01:17 0° 19° (NNE) 3,421 7.4 -5.5°
